Cloud_Cover
2 5 68 84 3 0 0 0 2 0 0 0 0 2 0 0 0 0 0 0 0 0 0 0 0 0 0 0 0 0 12 66 24 5 4 80 34 21 82 19 16 60 19 11
0 5 66 3 4 4 1 0 1 0 0 0 0 0 0 0 0 0 0 0 0 0 0 0 0 0 0 0 0 0 0 1 21 56 15 21 86 79 99 93 16 75 78 22
0 19 2 5 2 5 5 5 3 1 0 0 0 1 0 0 0 0 0 0 2 0 0 0 0 0 0 0 4 0 0 3 1 0 2 8 7 14 32 65 42 6 20 13
0 0 0 1 1 2 92 0 0 0 0 13 3 95 0 0 0 0 0 5 5 5 0 0 0 0 0 0 0 0 0 2 0 0 0 1 1 9 80 45 99 95 5 5
0 0 0 1 4 0 8 0 5 3 5 5 5 14 10 0 0 5 0 5 3 5 5 1 0 3 1 0 4 18 7 6 0 0 0 0 4 23 52 9 29 100 100 100
0 0 0 5 5 0 0 1 3 4 5 5 4 13 28 1 0 5 3 5 5 5 5 3 2 5 5 5 51 100 100 100 57 5 5 0 25 2 25 4 6 16 99 73
0 0 0 0 2 5 5 5 21 37 7 92 4 3 94 3 1 5 4 5 5 5 3 5 1 5 8 2 5 62 100 100 100 100 81 100 81 60 3 4 3 5 8 9
0 2 0 0 0 5 5 5 62 100 98 95 3 1 3 65 5 5 27 5 5 5 2 2 5 5 44 6 12 36 100 100 100 100 100 100 100 100 100 100 100 46 36 6
0 4 0 0 0 0 0 5 5 84 5 45 78 2 5 11 0 1 6 92 21 0 0 0 5 28 98 23 3 69 74 42 100 100 100 100 100 99 100 100 97 93 100 100
0 81 2 0 0 0 0 11 9 8 78 96 59 16 100 4 10 0 0 0 5 4 4 0 0 4 78 42 0 51 87 11 99 100 100 100 100 28 56 100 66 95 29 96
5 23 18 5 4 11 2 0 0 25 24 100 95 99 5 5 4 96 19 1 0 3 1 1 0 5 5 1 0 0 4 40 12 100 100 100 100 86 22 26 89 54 93 69
65 93 95 65 5 5 5 0 3 95 98 16 9 100 5 31 34 21 54 15 42 5 31 38 6 5 5 5 1 0 3 12 6 34 9 100 92 100 95 33 12 67 36 35
5 26 87 19 3 4 31 5 5 5 1 6 88 100 10 44 100 100 100 100 92 60 56 66 100 34 9 27 5 2 0 0 0 0 0 2 13 82 100 49 30 44 21 69
72 44 73 100 99 28 1 0 0 1 9 73 17 38 3 6 52 34 84 98 32 75 74 67 84 77 25 6 5 5 4 0 0 0 0 0 3 4 6 63 5 5 5 1
45 93 15 80 5 5 5 2 1 0 0 2 2 1 0 0 5 67 52 61 70 69 30 40 71 82 34 5 5 5 5 1 0 0 0 0 0 0 0 5 7 31 90 23
64 98 34 5 2 0 3 5 5 5 5 5 3 0 2 0 0 3 52 54 46 16 30 19 41 5 5 5 5 0 0 0 0 0 0 0 0 0 0 0 2 5 1 6
96 70 5 5 8 32 61 5 10 5 5 10 28 11 6 5 5 9 58 5 5 5 5 6 5 5 5 4 0 0 4 0 0 0 0 0 0 0 0 0 0 0 0 0
68 86 17 5 5 3 85 91 44 9 5 34 52 66 78 63 36 24 45 10 5 5 6 6 5 5 5 5 5 0 0 0 0 0 0 0 0 0 0 0 0 0 0 0
11 43 100 44 17 44 39 3 5 12 11 6 18 50 50 66 67 41 14 34 5 5 5 5 5 5 5 5 5 4 5 0 0 0 0 0 0 0 0 0 0 0 0 0
4 4 5 5 8 19 0 3 5 91 100 100 100 100 97 80 43 30 11 6 5 5 5 5 5 5 5 5 5 5 4 0 0 0 0 0 0 0 0 0 0 0 0 0
0 0 0 0 0 0 0 0 0 2 6 45 6 5 5 5 5 3 5 5 5 5 5 5 5 5 4 2 0 0 0 0 0 0 0 2 0 0 0 0 2 17 3 0
0 0 0 0 0 0 0 0 0 0 0 0 4 5 5 5 5 5 5 5 5 2 0 0 0 0 0 0 0 0 0 0 6 7 0 0 1 2 2 37 18 8 8 10
0 0 0 0 0 0 0 0 0 0 0 0 0 1 5 10 16 4 0 0 0 0 0 3 5 5 5 4 13 14 13 39 72 87 53 61 76 63 67 74 50 31 15 28
0 0 0 0 0 1 1 3 3 5 5 12 7 8 2 0 1 5 5 4 5 5 4 1 0 17 67 87 98 90 99 100 100 78 100 63 98 100 99 96 96 89 100 100
0 0 2 5 5 5 5 5 4 4 2 1 4 5 9 7 6 1 2 1 0 7 28 59 92 99 98 97 94 100 91 73 100 98 72 100 96 96 94 74 96 96 40 34
5 6 5 5 2 0 1 3 5 6 26 48 14 2 0 0 0 0 0 11 82 94 100 100 100 100 93 40 100 76 89 100 100 100 100 100 100 100 100 79 95 100 96 42